Meteopurmerend
purmerend
Purmerend - Baaienwijk



My webcam  My webcam


Onweer radar Meer informatie blitzortung!


Regen radar Meer informatie rain snow radar


Bezoek onze andere website:

CandyAppleRed WebdesignWebdesign Purmerend Candy Apple Red

MeteopurmerendBlog

Template documentation
and downloads



Het weer levert geen direct gevaar op.    Er zijn geen waarschuwingen afgegeven.

15 daagse weersverwachting Neuchâtel (CH)

  • Overzicht
  • Per uur
  • 15 dagen
  • Extra
  • Vergelijk
  • Kaarten
  • Dagkaart
  • Meer »
  • Info
  • Statistieken
  • Directe link
    Temp 6h Neerslag Wind  
 06:09     21:09    Daglengte: 15:00 Vandaag
08:00
16°
 
1
14:00
20°
3.3 mm
2
20:00
20°
 
3
 06:10     21:08    Daglengte: 14:58 Morgen
02:00
17°
 
2
08:00
17°
 
1
14:00
23°
 
2
20:00
22°
 
3
 06:11     21:07    Daglengte: 14:56 Vrijdag 30 Jul
02:00
18°
 
2
08:00
17°
7.7 mm
1
14:00
23°
7.4 mm
4
warningclass
20:00
19°
21.7 mm
2
warningclass
 06:13     21:05    Daglengte: 14:52 Zaterdag 31 Jul
02:00
16°
11.0 mm
2
Locatie info
Region: Neuchâtel
Latitude: 46.9903°N
Longitude: 6.9311°E
441 masl
Postcode: 2000
Temp/Neerslag /Baro Onweer/Dauwpunt
    Temp Baro 1h Neerslag Dauwpunt Wind UV Bewolking  
 06:09     21:09    Daglengte: 15:00 Vandaag
08:00
16°
1015.7 hPa
49%
13.5°
1
Windvlaag: 1.8 m/s
74%
09:00
17°
1015.7 hPa
67%
14.0°
1
Windvlaag: 1.6 m/s
86%
10:00
17°
1015.9 hPa 1.5 mm
70%
14.3°
1
Windvlaag: 2.3 m/s
86%
11:00
18°
1016.0 hPa 1.7 mm
69%
14.5°
1
Windvlaag: 3.2 m/s
85%
12:00
18°
1015.9 hPa
64%
15.2°
2
Windvlaag: 0.2 m/s
85%
13:00
19°
1015.8 hPa
27%
15.3°
2
Windvlaag: 0.6 m/s
55%
14:00
20°
1016.0 hPa
37%
14.4°
2
Windvlaag: 0.7 m/s
59%
15:00
20°
1015.8 hPa
69%
14.3°
3
Windvlaag: 1 m/s
59%
16:00
21°
1015.8 hPa
30%
13.7°
3
Windvlaag: 0.7 m/s
31%
17:00
21°
1015.6 hPa
24%
13.3°
4
Windvlaag: 0.3 m/s
26%
18:00
21°
1015.5 hPa
14%
11.9°
4
Windvlaag: 1.3 m/s
3%
19:00
21°
1015.9 hPa
14%
11.8°
4
Windvlaag: 2.4 m/s
0%
20:00
20°
1016.0 hPa
14%
12.9°
3
Windvlaag: 2.1 m/s
1%
21:00
19°
1016.4 hPa
14%
13.5°
2
Windvlaag: 1.4 m/s
2%
22:00
18°
1016.9 hPa
15%
14.2°
2
Windvlaag: -0.7 m/s
1%
23:00
17°
1017.0 hPa
19%
14.1°
3
Windvlaag: -1.7 m/s
5%
 06:10     21:08    Daglengte: 14:58 Morgen
00:00
17°
1017.0 hPa
16%
13.3°
3
Windvlaag: -2.1 m/s
8%
01:00
17°
1017.0 hPa
15%
13.3°
2
Windvlaag: -2 m/s
8%
02:00
17°
1016.8 hPa
14%
13.0°
2
Windvlaag: -1.1 m/s
8%
03:00
16°
1016.7 hPa
16%
13.1°
2
Windvlaag: -0.6 m/s
18%
04:00
16°
1016.6 hPa
19%
13.2°
1
Windvlaag: -0.5 m/s
28%
05:00
16°
1016.6 hPa
17%
13.3°
1
Windvlaag: -0.3 m/s
12%
06:00
16°
1016.9 hPa
14%
13.1°
1
Windvlaag: 0 m/s
14%
07:00
16°
1017.1 hPa
14%
13.2°
1
Windvlaag: -0.4 m/s
13%
08:00
17°
1017.1 hPa
14%
13.6°
1
Windvlaag: -0.9 m/s
9%
09:00
18°
1017.0 hPa
14%
14.1°
1
Windvlaag: -0.4 m/s
7%
10:00
19°
1016.9 hPa
14%
14.4°
1
Windvlaag: 1.7 m/s
5%
11:00
20°
1016.8 hPa
14%
14.4°
2
Windvlaag: 3.7 m/s
8%
12:00
21°
1016.3 hPa
14%
15.0°
2
Windvlaag: 4.9 m/s
24%
13:00
22°
1015.7 hPa
14%
15.5°
2
Windvlaag: 5.1 m/s
20%
14:00
23°
1015.1 hPa
15%
16.2°
2
Windvlaag: 4.9 m/s
18%
15:00
24°
1014.6 hPa
14%
16.8°
2
Windvlaag: 4.7 m/s
12%
16:00
25°
1014.1 hPa
14%
16.4°
2
Windvlaag: 3.4 m/s
8%
17:00
25°
1013.7 hPa
14%
15.4°
3
Windvlaag: 0.4 m/s
8%
18:00
24°
1013.5 hPa
14%
15.8°
3
Windvlaag: -0.8 m/s
2%
19:00
23°
1013.2 hPa
14%
15.2°
3
Windvlaag: -1.7 m/s
1%
20:00
22°
1013.3 hPa
14%
14.2°
3
Windvlaag: -3.4 m/s
8%
21:00
20°
1013.5 hPa
14%
14.0°
3
Windvlaag: -3.8 m/s
13%
22:00
19°
1013.9 hPa
14%
14.4°
3
Windvlaag: -3.8 m/s
9%
23:00
19°
1014.2 hPa
14%
14.1°
3
Windvlaag: -4.1 m/s
9%
 06:11     21:07    Daglengte: 14:56 Vrijdag 30 Jul
00:00
18°
1014.2 hPa
16%
13.8°
2
Windvlaag: -2.8 m/s
9%
01:00
18°
1014.2 hPa
29%
14.4°
2
Windvlaag: -0.8 m/s
12%
02:00
18°
1013.9 hPa
64%
14.5°
2
Windvlaag: 0.4 m/s
63%
03:00
17°
1013.5 hPa
29%
14.3°
1
Windvlaag: -4.1 m/s
23%
04:00
17°
1013.2 hPa
33%
14.4°
1
Windvlaag: -3.5 m/s
21%
05:00
17°
1012.2 hPa 3.1 mm
84%
14.1°
1
Windvlaag: -4 m/s
80%
06:00
16°
1012.4 hPa 1.9 mm
100%
14.6°
1
Windvlaag: -1.8 m/s
79%
07:00
17°
1012.7 hPa 2.7 mm
86%
14.3°
1
Windvlaag: -0.5 m/s
78%
08:00
17°
1012.4 hPa
34%
14.5°
1
Windvlaag: -0.1 m/s
39%
09:00
18°
1012.3 hPa
43%
15.0°
1
Windvlaag: 1.4 m/s
27%
10:00
20°
1011.9 hPa
28%
15.3°
1
Windvlaag: 2 m/s
14%
11:00
21°
1011.6 hPa
21%
16.0°
1
Windvlaag: 4.3 m/s
19%
12:00
22°
1011.5 hPa 3.1 mm
36%
16.7°
2
Windvlaag: 4.8 m/s
19%
13:00
23°
1010.9 hPa 2.0 mm
90%
17.1°
3
Windvlaag: 4.9 m/s
49% warningclass
14:00
23°
1010.6 hPa 2.2 mm
100%
16.1°
4
Windvlaag: 6.5 m/s
68% warningclass
15:00
22°
1010.2 hPa 2.3 mm
99%
16.4°
3
Windvlaag: 4.1 m/s
59% warningclass
16:00
22°
1010.1 hPa 4.8 mm
100%
16.0°
3
Windvlaag: 1.6 m/s
60% warningclass
17:00
22°
1010.2 hPa 3.9 mm
100%
15.2°
3
Windvlaag: 0.8 m/s
66% warningclass
18:00
21°
1010.5 hPa 4.5 mm
100%
14.8°
3
Windvlaag: -1 m/s
87% warningclass
19:00
20°
1010.6 hPa 3.2 mm
100%
15.2°
4
Windvlaag: -3 m/s
76% warningclass
20:00
19°
1011.2 hPa 3.0 mm
99%
16.9°
2
Windvlaag: -3.5 m/s
92% warningclass
21:00
19°
1011.6 hPa 3.1 mm
99%
16.5°
2
Windvlaag: -1.2 m/s
95% warningclass
22:00
18°
1012.2 hPa 3.4 mm
98%
16.6°
2
Windvlaag: 4.4 m/s
99% warningclass
23:00
17°
1012.3 hPa 4.5 mm
86%
14.7°
2
Windvlaag: 4 m/s
64%
 06:13     21:05    Daglengte: 14:52 Zaterdag 31 Jul
00:00
18°
1012.6 hPa
34%
14.3°
2
Windvlaag: 4.2 m/s
64%
01:00
16°
1012.6 hPa
32%
12.8°
2
Windvlaag: 4.4 m/s
41%
02:00
16°
1012.6 hPa
36%
13.2°
2
Windvlaag: 2.3 m/s
33%
03:00
17°
1012.2 hPa
38%
14.8°
2
Windvlaag: 8.1 m/s
41%
04:00
17°
1012.1 hPa
79%
14.9°
2
Windvlaag: 7.5 m/s
50%
05:00
17°
1011.8 hPa
88%
15.3°
1
Windvlaag: 6.5 m/s
19%
06:00
17°
1011.9 hPa
44%
15.4°
1
Windvlaag: 5.8 m/s
50%
07:00
17°
1012.1 hPa
78%
14.4°
1
Windvlaag: 2.9 m/s
61%
Temp/Neerslag /Baro Onweer/Dauwpunt
    Temp Baro Neerslag Dauwpunt Wind Bewolking  
 06:09     21:09    Daglengte: 15:00 Vandaag
08:00
16°
1015.7 hPa   13.5°
1
74%
11:00
18°
1016.0 hPa 3.3 mm 14.5°
1
85%
14:00
20°
1016.0 hPa   14.4°
2
59%
17:00
21°
1015.6 hPa   13.3°
4
26%
20:00
20°
1016.0 hPa   12.9°
3
1%
23:00
17°
1017.0 hPa   14.1°
3
5%
 06:10     21:08    Daglengte: 14:58 Morgen
02:00
17°
1016.8 hPa   13.0°
2
8%
05:00
16°
1016.6 hPa   13.3°
1
12%
08:00
17°
1017.1 hPa   13.6°
1
9%
11:00
20°
1016.8 hPa   14.4°
2
8%
14:00
23°
1015.1 hPa   16.2°
2
18%
17:00
25°
1013.7 hPa   15.4°
3
8%
20:00
22°
1013.3 hPa   14.2°
3
8%
23:00
19°
1014.2 hPa   14.1°
3
9%
 06:11     21:07    Daglengte: 14:56 Vrijdag 30 Jul
02:00
18°
1013.9 hPa   14.5°
2
63%
05:00
17°
1012.2 hPa 3.1 mm 14.1°
1
80%
08:00
17°
1012.4 hPa 4.7 mm 14.5°
1
39%
11:00
21°
1011.6 hPa   16.0°
1
19%
14:00
23°
1010.6 hPa 7.4 mm 16.1°
4
68% warningclass
17:00
22°
1010.2 hPa 11.0 mm 15.2°
3
66% warningclass
20:00
19°
1011.2 hPa 10.7 mm 16.9°
2
92% warningclass
23:00
17°
1012.3 hPa 11.0 mm 14.7°
2
64%
 06:13     21:05    Daglengte: 14:52 Zaterdag 31 Jul
02:00
16°
1012.6 hPa   13.2°
2
33%
05:00
17°
1011.8 hPa   15.3°
1
19%
08:00
17°
1012.3 hPa   13.8°
2
20%
11:00
19°
1014.2 hPa 24.9 mm 13.2°
2
1%
14:00
21°
1013.5 hPa 25.0 mm 12.5°
2
1%
17:00
21°
1013.0 hPa 25.0 mm 13.1°
2
1%
20:00
19°
1013.0 hPa 25.1 mm 14.1°
2
1%
23:00
16°
1014.0 hPa 25.2 mm 12.7°
2
1%
 06:14     21:04    Daglengte: 14:50 Zondag 01 Aug
02:00
16°
1013.4 hPa 25.4 mm 12.5°
1
1%
05:00
14°
1013.4 hPa 25.4 mm 11.6°
2
1%
08:00
15°
1013.9 hPa 25.6 mm 12.0°
1
1%
11:00
20°
1013.4 hPa 25.8 mm 10.3°
1
0%
14:00
20°
1013.1 hPa 25.9 mm 10.8°
1
0%
17:00
20°
1013.1 hPa 26.1 mm 12.0°
2
1%
20:00
17°
1013.7 hPa 26.7 mm 14.1°
2
1%
23:00
14°
1015.3 hPa 26.8 mm 12.1°
2
0%
 06:15     21:03    Daglengte: 14:48 Maandag 02 Aug
02:00
14°
1014.9 hPa 26.8 mm 12.2°
0
1%
05:00
14°
1014.9 hPa 26.9 mm 11.9°
0
1%
08:00
15°
1015.4 hPa 27.0 mm 12.7°
0
1%
11:00
19°
1015.5 hPa 27.1 mm 11.6°
1
1%
14:00
22°
1014.6 hPa 27.1 mm 11.4°
3
1%
17:00
22°
1014.1 hPa 27.2 mm 11.9°
1
0%
20:00
19°
1014.7 hPa 27.4 mm 13.4°
1
0%
23:00
15°
1016.0 hPa 27.4 mm 11.5°
2
1%
 06:16     21:01    Daglengte: 14:45 Dinsdag 03 Aug
02:00
15°
1016.4 hPa 27.4 mm 11.5°
1
1%
05:00
14°
1016.1 hPa 27.4 mm 11.4°
0
1%
08:00
16°
1016.2 hPa 27.4 mm 12.9°
0
1%
11:00
21°
1014.8 hPa 27.4 mm 14.1°
1
1%
14:00
23°
1013.4 hPa 27.4 mm 14.4°
1
1%
17:00
22°
1012.4 hPa 28.1 mm 15.1°
2
1%
20:00
18°
1013.7 hPa 31.4 mm 15.9°
1
1%
23:00
16°
1014.8 hPa 32.1 mm 14.1°
1
1%
 06:17     21:00    Daglengte: 14:43 Woensdag 04 Aug
02:00
16°
1015.2 hPa 32.1 mm 13.5°
1
1%
05:00
15°
1014.4 hPa   12.5°
0
0%
08:00
16°
1014.5 hPa 64.2 mm 14.6°
0
0%
14:00
23°
1012.4 hPa 64.9 mm 16.7°
2
1%
20:00
21°
1010.9 hPa 67.1 mm 16.7°
3
1%
 06:19     20:58    Daglengte: 14:39 Donderdag 05 Aug
02:00
17°
1012.5 hPa 74.5 mm 15.5°
2
1%
08:00
16°
1011.0 hPa 85.1 mm 15.9°
1
1%
14:00
17°
1010.1 hPa 109.8 mm 15.6°
4
1%
20:00
17°
1010.5 hPa 125.4 mm 14.2°
2
1%
 06:20     20:57    Daglengte: 14:37 Vrijdag 06 Aug
02:00
13°
1010.8 hPa 126.7 mm 10.9°
1
0%
08:00
15°
1009.5 hPa 126.8 mm 13.0°
2
1%
14:00
22°
1007.8 hPa 127.6 mm 13.6°
9
1%
20:00
18°
1008.7 hPa 129.3 mm 12.9°
7
0%
 06:21     20:55    Daglengte: 14:34 Zaterdag 07 Aug
02:00
14°
1014.7 hPa 1.7 mm 12.4°
2
58%
08:00
14°
1015.0 hPa 1.7 mm 12.8°
2
59%
14:00
20°
1014.7 hPa 1.6 mm 14.6°
3
55%
20:00
18°
1015.3 hPa 1.2 mm 14.8°
2
50%
 06:23     20:54    Daglengte: 14:31 Zondag 08 Aug
02:00
13°
1017.3 hPa 0.6 mm 11.9°
1
40%
08:00
14°
1017.1 hPa 0.6 mm 12.5°
1
51%
14:00
21°
1016.4 hPa 0.6 mm 15.0°
2
57%
20:00
19°
1017.1 hPa 0.3 mm 15.3°
1
48%
 06:24     20:52    Daglengte: 14:28 Maandag 09 Aug
02:00
14°
1019.1 hPa 0.8 mm 12.4°
1
42%
08:00
15°
1019.2 hPa 0.4 mm 12.9°
1
41%
14:00
22°
1018.3 hPa 0.3 mm 15.7°
1
41%
20:00
19°
1018.7 hPa 1.5 mm 15.9°
1
47%
 06:25     20:51    Daglengte: 14:26 Dinsdag 10 Aug
02:00
14°
1020.9 hPa 2.8 mm 12.8°
1
37%
08:00
15°
1021.3 hPa 0.7 mm 13.1°
1
40%
14:00
22°
1020.4 hPa 0.8 mm 15.5°
1
48%
20:00
19°
1020.5 hPa 1.5 mm 15.6°
1
43%
 06:26     20:49    Daglengte: 14:23 Woensdag 11 Aug
02:00
14°
1022.1 hPa 1.3 mm 12.3°
0
34%
08:00
14°
1021.8 hPa 0.8 mm 13.2°
0
41%
14:00
22°
1020.2 hPa 0.6 mm 15.1°
1
44%
20:00
19°
1020.1 hPa 1.0 mm 15.7°
1
39%
 06:28     20:47    Daglengte: 14:19 Donderdag 12 Aug
02:00
14°
1021.3 hPa 0.7 mm 12.5°
0
32%
  CAPE Lifted Index Hail Supercell Tornado SRH 3km CL BTM PRES CL TOP PRES Swiss DWD icon SMHI TS
 06:09     21:09    Daglengte: 15:00 Vandaag
08:00 32 J/kg 1.2 K 0 % 0 % 0 % 0 m²/s² 0 0 2.19 3
09:00 97 J/kg 1.1 K 0 % 0 % 0 % 0 m²/s² 0 0 1.91 3
10:00 222 J/kg -0.3 K 0 % 0 % 0 % 0 m²/s² 0 0 1.92 3
11:00 450 J/kg -0.8 K 0 % 0 % 0 % 0 m²/s² 0 0 2.71 3
12:00 568 J/kg -1.3 K 0 % 0 % 0 % 0 m²/s² 0 0 3.14 3
13:00 702 J/kg -1.8 K 0 % 0 % 0 % 0 m²/s² 0 0 3 2
14:00 656 J/kg -2.1 K 0 % 0 % 0 % 0 m²/s² 0 0 2.97 3
15:00 511 J/kg -2.0 K 0 % 0 % 0 % 0 m²/s² 0 0 3.22 3
16:00 381 J/kg -1.7 K 0 % 0 % 0 % 0 m²/s² 0 0 3.82 2
17:00 184 J/kg -0.8 K 0 % 0 % 0 % 0 m²/s² 0 0 4.6 1
18:00 44 J/kg 0.2 K 0 % 0 % 0 % 0 m²/s² 0 0 5.87 2
19:00 26 J/kg 0.7 K 0 % 0 % 0 % 0 m²/s² 0 0 6.52 1
20:00 1 J/kg 1.4 K 0 % 0 % 0 % 0 m²/s² 0 0 7.58 1
21:00 0 J/kg 2.0 K 0 % 0 % 0 % 0 m²/s² 0 0 7.67 2
22:00 0 J/kg 2.0 K 0 % 0 % 0 % 0 m²/s² 0 0 7.22 2
23:00 0 J/kg 2.5 K 0 % 0 % 0 % 0 m²/s² 0 0 8.02 1
 06:10     21:08    Daglengte: 14:58 Morgen
00:00 0 J/kg 2.0 K 0 % 0 % 0 % 0 m²/s² 0 0 7.4 2
01:00 0 J/kg 1.8 K 0 % 0 % 0 % 0 m²/s² 0 0 6.93 1
02:00 1 J/kg 2.0 K 0 % 0 % 0 % 0 m²/s² 0 0 7.25 2
03:00 0 J/kg 2.0 K 0 % 0 % 0 % 0 m²/s² 0 0 7.7 3
04:00 0 J/kg 2.4 K 0 % 0 % 0 % 0 m²/s² 0 0 8.25 3
05:00 0 J/kg 2.8 K 0 % 0 % 0 % 0 m²/s² 0 0 9.01 1
06:00 0 J/kg 3.0 K 0 % 0 % 0 % 0 m²/s² 0 0 9.36 2
07:00 0 J/kg 3.2 K 0 % 0 % 0 % 0 m²/s² 0 0 9.59 1
08:00 0 J/kg 3.3 K 0 % 0 % 0 % 0 m²/s² 0 0 9.69 1
09:00 0 J/kg 3.6 K 0 % 0 % 0 % 0 m²/s² 0 0 10.2 1
10:00 1 J/kg 2.9 K 0 % 0 % 0 % 0 m²/s² 0 0 9.5 1
11:00 14 J/kg 1.8 K 0 % 0 % 0 % 0 m²/s² 0 0 8.19 1
12:00 31 J/kg 1.1 K 0 % 0 % 0 % 0 m²/s² 0 0 7.49 1
13:00 27 J/kg 0.7 K 0 % 0 % 0 % 0 m²/s² 0 0 6.91 1
14:00 56 J/kg 0.1 K 0 % 0 % 0 % 0 m²/s² 0 0 6.49 1
15:00 159 J/kg -0.4 K 0 % 0 % 0 % 0 m²/s² 0 0 6.59 0
16:00 222 J/kg -0.8 K 0 % 0 % 0 % 0 m²/s² 0 0 6.19 1
17:00 204 J/kg -1.0 K 0 % 0 % 0 % 0 m²/s² 0 0 4.73 2
18:00 104 J/kg -0.6 K 0 % 0 % 0 % 0 m²/s² 0 0 3.72 1
19:00 31 J/kg -0.1 K 0 % 0 % 0 % 0 m²/s² 0 0 3.23 0
20:00 0 J/kg 0.5 K 0 % 0 % 0 % 0 m²/s² 0 0 2.72 0
21:00 0 J/kg 0.3 K 0 % 0 % 0 % 0 m²/s² 0 0 1.8 0
22:00 0 J/kg -0.9 K 0 % 0 % 0 % 0 m²/s² 0 0 0.27 0
23:00 0 J/kg -1.2 K 0 % 0 % 0 % 0 m²/s² 0 0 -1.2 0
 06:11     21:07    Daglengte: 14:56 Vrijdag 30 Jul
00:00 0 J/kg -1.4 K 0 % 0 % 0 % 0 m²/s² 0 0 -1.19 2
01:00 0 J/kg -1.5 K 0 % 0 % 0 % 0 m²/s² 0 0 -0.93 2
02:00 0 J/kg -1.3 K 0 % 0 % 0 % 0 m²/s² 0 0 -0.91 2
03:00 0 J/kg -1.5 K 0 % 0 % 0 % 0 m²/s² 0 0 -0.21 2
04:00 0 J/kg -1.8 K 0 % 0 % 0 % 0 m²/s² 0 0 0.33 2
05:00 0 J/kg -1.9 K 0 % 0 % 0 % 0 m²/s² 0 0 2.09 3
06:00 0 J/kg -1.7 K 0 % 0 % 0 % 0 m²/s² 0 0 2.38 3
07:00 0 J/kg -1.4 K 0 % 0 % 0 % 0 m²/s² 0 0 3.25 2
08:00 0 J/kg -1.3 K 0 % 0 % 0 % 0 m²/s² 0 0 3.86 2
09:00 0 J/kg -1.6 K 0 % 0 % 0 % 0 m²/s² 0 0 3.17 3
10:00 115 J/kg -2.3 K 0 % 0 % 0 % 0 m²/s² 0 0 1.78 1
11:00 588 J/kg -2.6 K 0 % 0 % 0 % 0 m²/s² 0 0 1 1
12:00 1000 J/kg -3.6 K 0 % 0 % 0 % 0 m²/s² 0 0 -0.63 2
13:00 1353 J/kg -4.7 K 0 % 0 % 0 % 0 m²/s² 0 0 -2.48 3
14:00 1783 J/kg -5.8 K 0 % 0 % 0 % 0 m²/s² 0 0 -4.21 80
15:00 1772 J/kg -5.8 K 0 % 0 % 0 % 0 m²/s² 0 0 -4.51 95
16:00 1951 J/kg -6.3 K 0 % 0 % 0 % 0 m²/s² 0 0 -4.71 81
17:00 2158 J/kg -7.1 K 0 % 0 % 0 % 0 m²/s² 0 0 -6.32 95
18:00 2054 J/kg -6.7 K 0 % 0 % 0 % 0 m²/s² 0 0 -6.07 95
19:00 1646 J/kg -5.6 K 0 % 0 % 0 % 0 m²/s² 0 0 -4.43 80
20:00 1569 J/kg -5.2 K 0 % 0 % 0 % 0 m²/s² 0 0 -4.06 3
21:00 1080 J/kg -4.5 K 0 % 0 % 0 % 0 m²/s² 0 0 -4.38 80
22:00 673 J/kg -3.1 K 0 % 0 % 0 % 0 m²/s² 0 0 -2.47 80
23:00 14 J/kg 0.1 K 0 % 0 % 0 % 0 m²/s² 0 0 1.21 3
 06:13     21:05    Daglengte: 14:52 Zaterdag 31 Jul
00:00 0 J/kg 2.0 K 0 % 0 % 0 % 0 m²/s² 0 0 2.9 2
01:00 0 J/kg 2.1 K 0 % 0 % 0 % 0 m²/s² 0 0 3.3 2
02:00 0 J/kg 1.8 K 0 % 0 % 0 % 0 m²/s² 0 0 3.63 2
03:00 3 J/kg 1.8 K 0 % 0 % 0 % 0 m²/s² 0 0 4.38 2
04:00 17 J/kg 2.1 K 0 % 0 % 0 % 0 m²/s² 0 0 4.53 3
05:00 14 J/kg 2.6 K 0 % 0 % 0 % 0 m²/s² 0 0 4.76 2
06:00 24 J/kg 2.7 K 0 % 0 % 0 % 0 m²/s² 0 0 4.53 2
07:00 1 J/kg 3.3 K 0 % 0 % 0 % 0 m²/s² 0 0 5.58 2
Temp Baro Wind Neerslag
  EWN Forecast EWN WRFDA DWD ICON FMI HIRLAM MET Norway GFS
 06:09     21:09    Daglengte: 15:00 Vandaag
08:00 16.3° 1015.7 hPa 0.8 m/s 0.0 mm 16.0° 1015.2 hPa 3.4 m/s 6.6 mm 16.5° 1015.6 hPa 0.3 m/s -2.0 mm 17.1° 1015.9 hPa 1.9 m/s 0.0 mm 15.6° 1016.5 hPa 3.0 m/s
11:00 17.5° 1016.0 hPa 1.2 m/s 3.3 mm 19.7° 1014.8 hPa 5.0 m/s 20.8 mm 17.4° 1015.9 hPa 1.1 m/s 0.8 mm 17.9° 1016.3 hPa 0.7 m/s 0.0 mm 19.5° 1016.1 hPa 4.5 m/s
14:00 19.7° 1016.0 hPa 2.4 m/s 0.0 mm 22.1° 1014.3 hPa 3.9 m/s 21.4 mm 19.5° 1016.2 hPa 3.5 m/s 0.0 mm 20.9° 1015.8 hPa 2.1 m/s 0.0 mm 22.3° 1015.4 hPa 4.8 m/s
17:00 21.3° 1015.6 hPa 3.8 m/s 0.0 mm 23.5° 1013.8 hPa 4.0 m/s 21.6 mm 21.2° 1015.7 hPa 4.0 m/s 0.0 mm 22.9° 1015.3 hPa 4.2 m/s 0.0 mm 23.3° 1015.2 hPa 3.7 m/s
20:00 20.0° 1016.0 hPa 2.9 m/s 0.0 mm 21.1° 1013.8 hPa 2.5 m/s 21.6 mm 19.9° 1016.0 hPa 3.4 m/s 0.0 mm 21.4° 1016.2 hPa 3.0 m/s 0.0 mm 20.7° 1015.8 hPa 1.6 m/s
23:00 17.4° 1017.0 hPa 2.8 m/s 0.0 mm 16.3° 1014.4 hPa 3.4 m/s 21.6 mm 17.9° 1016.9 hPa 1.5 m/s 0.0 mm 18.1° 1017.8 hPa 3.1 m/s 0.0 mm 16.7° 1017.2 hPa 1.3 m/s
 06:10     21:08    Daglengte: 14:58 Morgen
02:00 16.5° 1016.8 hPa 1.9 m/s 0.0 mm 15.2° 1014.6 hPa 2.5 m/s 21.6 mm 16.9° 1017.0 hPa 1.7 m/s 0.0 mm 17.3° 1017.7 hPa 1.9 m/s 0.0 mm 15.6° 1017.0 hPa 0.8 m/s
05:00 15.9° 1016.6 hPa 1.0 m/s 0.0 mm 14.5° 1014.1 hPa 2.8 m/s 21.6 mm 16.6° 1016.8 hPa 0.7 m/s 0.0 mm 16.3° 1017.5 hPa 0.6 m/s 0.0 mm 16.5° 1016.7 hPa 0.2 m/s
08:00 16.9° 1017.1 hPa 0.8 m/s 0.0 mm 18.6° 1014.2 hPa 1.7 m/s 21.6 mm 17.0° 1017.1 hPa 0.6 m/s 0.0 mm 17.3° 1017.4 hPa 0.3 m/s 0.0 mm 17.5° 1016.7 hPa 0.6 m/s
11:00 20.0° 1016.8 hPa 1.7 m/s 0.0 mm 22.1° 1013.6 hPa 3.5 m/s 21.6 mm 20.1° 1016.9 hPa 2.4 m/s 0.0 mm 19.9° 1017.1 hPa 0.4 m/s 0.0 mm 21.9° 1015.9 hPa 1.9 m/s
14:00 22.9° 1015.1 hPa 2.4 m/s 0.0 mm 24.9° 1012.9 hPa 3.8 m/s 21.6 mm 23.0° 1015.1 hPa 3.7 m/s 0.0 mm 22.9° 1015.3 hPa 2.2 m/s 0.0 mm 24.5° 1014.2 hPa 2.4 m/s
17:00 24.8° 1013.7 hPa 3.3 m/s 0.0 mm 25.3° 1011.9 hPa 4.0 m/s 21.6 mm 25.0° 1013.2 hPa 4.9 m/s 0.0 mm 25.4° 1014.1 hPa 3.3 m/s 0.0 mm 26.7° 1012.2 hPa 2.3 m/s
20:00 22.2° 1013.3 hPa 3.0 m/s 0.0 mm 21.9° 1012.3 hPa 2.6 m/s 21.6 mm 22.8° 1012.7 hPa 2.4 m/s 0.0 mm 22.5° 1015.2 hPa 3.5 m/s 0.0 mm 20.4° 1013.8 hPa 1.8 m/s
23:00 18.9° 1014.2 hPa 2.9 m/s 0.0 mm 18.8° 1013.2 hPa 1.2 m/s 21.8 mm 19.3° 1013.8 hPa 1.7 m/s 0.0 mm 19.1° 1016.9 hPa 3.5 m/s 0.0 mm 17.8° 1014.7 hPa 1.1 m/s
 06:11     21:07    Daglengte: 14:56 Vrijdag 30 Jul
02:00 17.5° 1013.9 hPa 1.6 m/s 0.0 mm 17.6° 1013.1 hPa 1.5 m/s 22.7 mm 18.2° 1013.4 hPa 1.6 m/s 0.0 mm 17.6° 1017.2 hPa 2.8 m/s 0.0 mm 16.6° 1015.2 hPa 0.8 m/s
05:00 16.6° 1012.2 hPa 1.1 m/s 3.1 mm 16.4° 1012.7 hPa 0.7 m/s 23.5 mm 17.6° 1012.2 hPa 1.6 m/s 0.0 mm 16.2° 1014.8 hPa 0.6 m/s
08:00 17.4° 1012.4 hPa 0.8 m/s 4.7 mm 17.8° 1012.4 hPa 1.1 m/s 23.6 mm 17.5° 1013.1 hPa 0.4 m/s 0.3 mm 18.0° 1014.3 hPa 0.6 m/s
11:00 20.8° 1011.6 hPa 1.4 m/s 0.0 mm 22.3° 1011.3 hPa 1.3 m/s 23.7 mm 20.8° 1012.7 hPa 1.3 m/s 0.0 mm 20.9° 1013.7 hPa 1.0 m/s
14:00 22.9° 1010.6 hPa 3.8 m/s 7.4 mm 26.0° 1009.4 hPa 4.0 m/s 23.7 mm 22.6° 1011.6 hPa 4.8 m/s 0.9 mm 24.5° 1011.5 hPa 1.5 m/s
17:00 22.0° 1010.2 hPa 2.6 m/s 11.0 mm 25.8° 1008.7 hPa 2.0 m/s 24.7 mm 19.9° 1011.7 hPa 2.5 m/s 6.0 mm 25.4° 1010.1 hPa 2.1 m/s
20:00 19.1° 1011.2 hPa 2.2 m/s 10.7 mm 22.4° 1008.1 hPa 1.3 m/s 31.2 mm 19.1° 1011.8 hPa 1.8 m/s 4.9 mm 21.6° 1010.5 hPa 2.4 m/s
23:00 17.4° 1012.3 hPa 2.2 m/s 11.0 mm 17.6° 1009.7 hPa 3.0 m/s 37.1 mm 18.1° 1012.5 hPa 1.8 m/s 2.2 mm 18.6° 1013.5 hPa 2.1 m/s
 06:13     21:05    Daglengte: 14:52 Zaterdag 31 Jul
02:00 15.5° 1012.6 hPa 2.4 m/s 0.0 mm 15.2° 1011.6 hPa 2.6 m/s 37.7 mm 17.6° 1012.4 hPa 1.6 m/s 0.0 mm 17.6° 1013.5 hPa 1.7 m/s
05:00 16.8° 1011.8 hPa 1.0 m/s 0.0 mm 16.0° 1011.3 hPa 1.7 m/s 37.7 mm 16.9° 1012.0 hPa 0.8 m/s 0.0 mm 16.3° 1013.3 hPa 1.7 m/s
08:00 16.6° 1012.3 hPa 1.7 m/s 0.0 mm 16.0° 1012.3 hPa 1.5 m/s 37.9 mm 16.8° 1012.3 hPa 1.7 m/s 0.0 mm 17.1° 1013.9 hPa 1.7 m/s
11:00 19.1° 1014.2 hPa 1.8 m/s 24.9 mm 19.1° 1014.2 hPa 1.8 m/s 24.9 mm
14:00 21.3° 1013.5 hPa 1.9 m/s 25.0 mm 21.3° 1013.5 hPa 1.9 m/s 25.0 mm
17:00 21.1° 1013.0 hPa 1.9 m/s 25.0 mm 21.1° 1013.0 hPa 1.9 m/s 25.0 mm
20:00 18.6° 1013.0 hPa 1.9 m/s 25.1 mm 18.6° 1013.0 hPa 1.9 m/s 25.1 mm
23:00 15.9° 1014.0 hPa 1.7 m/s 25.2 mm 15.9° 1014.0 hPa 1.7 m/s 25.2 mm
 06:14     21:04    Daglengte: 14:50 Zondag 01 Aug
02:00 15.5° 1013.4 hPa 1.2 m/s 25.4 mm 15.5° 1013.4 hPa 1.2 m/s 25.4 mm
05:00 13.7° 1013.4 hPa 1.5 m/s 25.4 mm 13.7° 1013.4 hPa 1.5 m/s 25.4 mm
08:00 15.4° 1013.9 hPa 1.1 m/s 25.6 mm 15.4° 1013.9 hPa 1.1 m/s 25.6 mm
11:00 19.8° 1013.4 hPa 0.6 m/s 25.8 mm 19.8° 1013.4 hPa 0.6 m/s 25.8 mm
14:00 20.3° 1013.1 hPa 0.6 m/s 25.9 mm 20.3° 1013.1 hPa 0.6 m/s 25.9 mm
17:00 19.9° 1013.1 hPa 1.7 m/s 26.1 mm 19.9° 1013.1 hPa 1.7 m/s 26.1 mm
20:00 17.4° 1013.7 hPa 2.3 m/s 26.7 mm 17.4° 1013.7 hPa 2.3 m/s 26.7 mm
23:00 14.1° 1015.3 hPa 1.6 m/s 26.8 mm 14.1° 1015.3 hPa 1.6 m/s 26.8 mm
 06:15     21:03    Daglengte: 14:48 Maandag 02 Aug
02:00 14.3° 1014.9 hPa 0.5 m/s 26.8 mm 14.3° 1014.9 hPa 0.5 m/s 26.8 mm
05:00 14.2° 1014.9 hPa 0.5 m/s 26.9 mm 14.2° 1014.9 hPa 0.5 m/s 26.9 mm
08:00 15.2° 1015.4 hPa 0.4 m/s 27.0 mm 15.2° 1015.4 hPa 0.4 m/s 27.0 mm
11:00 19.2° 1015.5 hPa 1.2 m/s 27.1 mm 19.2° 1015.5 hPa 1.2 m/s 27.1 mm
14:00 21.9° 1014.6 hPa 2.6 m/s 27.1 mm 21.9° 1014.6 hPa 2.6 m/s 27.1 mm
17:00 22.2° 1014.1 hPa 1.5 m/s 27.2 mm 22.2° 1014.1 hPa 1.5 m/s 27.2 mm
20:00 19.1° 1014.7 hPa 1.4 m/s 27.4 mm 19.1° 1014.7 hPa 1.4 m/s 27.4 mm
23:00 15.4° 1016.0 hPa 2.0 m/s 27.4 mm 15.4° 1016.0 hPa 2.0 m/s 27.4 mm
 06:16     21:01    Daglengte: 14:45 Dinsdag 03 Aug
02:00 15.3° 1016.4 hPa 1.0 m/s 27.4 mm 15.3° 1016.4 hPa 1.0 m/s 27.4 mm
05:00 14.3° 1016.1 hPa 0.4 m/s 27.4 mm 14.3° 1016.1 hPa 0.4 m/s 27.4 mm
08:00 16.2° 1016.2 hPa 0.4 m/s 27.4 mm 16.2° 1016.2 hPa 0.4 m/s 27.4 mm
11:00 21.1° 1014.8 hPa 0.9 m/s 27.4 mm 21.1° 1014.8 hPa 0.9 m/s 27.4 mm
14:00 23.3° 1013.4 hPa 1.4 m/s 27.4 mm 23.3° 1013.4 hPa 1.4 m/s 27.4 mm
17:00 22.4° 1012.4 hPa 1.8 m/s 28.1 mm 22.4° 1012.4 hPa 1.8 m/s 28.1 mm
20:00 18.5° 1013.7 hPa 1.3 m/s 31.4 mm 18.5° 1013.7 hPa 1.3 m/s 31.4 mm
23:00 16.4° 1014.8 hPa 1.0 m/s 32.1 mm 16.4° 1014.8 hPa 1.0 m/s 32.1 mm
 06:17     21:00    Daglengte: 14:43 Woensdag 04 Aug
02:00 16.1° 1015.2 hPa 0.9 m/s 32.1 mm 16.1° 1015.2 hPa 0.9 m/s 32.1 mm
05:00 14.5° 1014.4 hPa 0.4 m/s 32.1 mm 14.5° 1014.4 hPa 0.4 m/s 32.1 mm
08:00 16.2° 1014.5 hPa 0.5 m/s 32.1 mm 16.2° 1014.5 hPa 0.5 m/s 32.1 mm
14:00 23.3° 1012.4 hPa 2.3 m/s 32.7 mm 23.3° 1012.4 hPa 2.3 m/s 32.7 mm
20:00 20.8° 1010.9 hPa 2.9 m/s 34.1 mm 20.8° 1010.9 hPa 2.9 m/s 34.1 mm
 06:19     20:58    Daglengte: 14:39 Donderdag 05 Aug
02:00 16.5° 1012.5 hPa 1.5 m/s 38.8 mm 16.5° 1012.5 hPa 1.5 m/s 38.8 mm
08:00 16.4° 1011.0 hPa 1.0 m/s 44.2 mm 16.4° 1011.0 hPa 1.0 m/s 44.2 mm
14:00 16.8° 1010.1 hPa 3.7 m/s 60.6 mm 16.8° 1010.1 hPa 3.7 m/s 60.6 mm
20:00 16.8° 1010.5 hPa 1.5 m/s 62.9 mm 16.8° 1010.5 hPa 1.5 m/s 62.9 mm
 06:20     20:57    Daglengte: 14:37 Vrijdag 06 Aug
02:00 13.2° 1010.8 hPa 1.2 m/s 63.4 mm 13.2° 1010.8 hPa 1.2 m/s 63.4 mm
08:00 14.6° 1009.5 hPa 1.9 m/s 63.4 mm 14.6° 1009.5 hPa 1.9 m/s 63.4 mm
14:00 21.9° 1007.8 hPa 9.4 m/s 64.1 mm 21.9° 1007.8 hPa 9.4 m/s 64.1 mm
20:00 17.7° 1008.7 hPa 6.6 m/s 64.7 mm 17.7° 1008.7 hPa 6.6 m/s 64.7 mm
 06:21     20:55    Daglengte: 14:34 Zaterdag 07 Aug
02:00 13.7° 1014.7 hPa 2.3 m/s 1.7 mm
08:00 14.1° 1015.0 hPa 2.2 m/s 1.7 mm
14:00 20.1° 1014.7 hPa 3.1 m/s 1.6 mm
20:00 17.9° 1015.3 hPa 1.6 m/s 1.2 mm
 06:23     20:54    Daglengte: 14:31 Zondag 08 Aug
02:00 13.2° 1017.3 hPa 1.4 m/s 0.6 mm
08:00 14.2° 1017.1 hPa 1.4 m/s 0.6 mm
14:00 21.3° 1016.4 hPa 2.2 m/s 0.6 mm
20:00 18.6° 1017.1 hPa 1.3 m/s 0.3 mm
 06:24     20:52    Daglengte: 14:28 Maandag 09 Aug
02:00 13.7° 1019.1 hPa 1.0 m/s 0.8 mm
08:00 14.5° 1019.2 hPa 1.1 m/s 0.4 mm
14:00 22.5° 1018.3 hPa 1.4 m/s 0.3 mm
20:00 19.2° 1018.7 hPa 0.9 m/s 1.5 mm
 06:25     20:51    Daglengte: 14:26 Dinsdag 10 Aug
02:00 14.3° 1020.9 hPa 0.9 m/s 2.8 mm
08:00 14.8° 1021.3 hPa 0.9 m/s 0.7 mm
14:00 21.8° 1020.4 hPa 1.0 m/s 0.8 mm
20:00 18.7° 1020.5 hPa 1.2 m/s 1.5 mm
 06:26     20:49    Daglengte: 14:23 Woensdag 11 Aug
02:00 13.6° 1022.1 hPa 0.4 m/s 1.3 mm
08:00 14.5° 1021.8 hPa 0.3 m/s 0.8 mm
14:00 22.1° 1020.2 hPa 0.9 m/s 0.6 mm
20:00 18.8° 1020.1 hPa 1.3 m/s 1.0 mm
 06:28     20:47    Daglengte: 14:19 Donderdag 12 Aug
02:00 13.6° 1021.3 hPa 0.3 m/s 0.7 mm
FMI Hirlam - 7.5 km EWN WRFDA - 12 km DWD ICON - 7 km GFS - 25 km Basiskaart






























































Updatetijd (Europe/Amsterdam) Resolutie Lengte Stap
FMI Hirlam 07:00, 13:00, 19:00, 01:00 7.5 km 49h 1h
EWN WRFDA 05:30, 11:30, 17:30, 23:30 12 km 73h 1h
DWD ICON 06:00, 12:00, 18:00, 00:00 7 km 75h 1h
GFS 02:15, 08:15, 14:15, 20:15 25 km 237h 3h
30+ mm
25-30 mm
20-25 mm
15-20 mm
10-15 mm
6-10 mm
4-6 mm
2-4 mm
1-2 mm
0.5-1 mm
0.2-0.5 mm
0.1-0.2 mm
30+ mm
25-30 mm
20-25 mm
15-20 mm
10-15 mm
6-10 mm
4-6 mm
2-4 mm
1-2 mm
0.5-1 mm
0.2-0.5 mm
0.1-0.2 mm
Sneeuwval
Natte sneeuw
Hagel
Vorst
30+ mm
25-30 mm
20-25 mm
15-20 mm
10-15 mm
6-10 mm
4-6 mm
2-4 mm
1-2 mm
0.5-1 mm
0.2-0.5 mm
0.1-0.2 mm
Sneeuwval
Natte sneeuw
Hagel
Vorst
Onweer
50 mm
40 mm
30 mm
26 mm
22 mm
18 mm
14 mm
10 mm
9 mm
8 mm
7 mm
6 mm
5 mm
4.5 mm
4 mm
3.5 mm
3 mm
2.5 mm
2 mm
1.5 mm
1 mm
0.8 mm
0.6 mm
0.4 mm
0.2 mm
0.05 mm
35°
30°
25°
20°
15°
10°
-5°
-10°
-15°
-20°
-25°
-30°
-35°
33> m/s
29 m/s
25 m/s
21 m/s
17 m/s
14 m/s
11 m/s
8 m/s
5 m/s
3 m/s
0 m/s
2600 J/kg
2400 J/kg
2200 J/kg
2000 J/kg
1800 J/kg
1600 J/kg
1400 J/kg
1200 J/kg
1000 J/kg
800 J/kg
600 J/kg
400 J/kg
200 J/kg
70 dBZ
65 dBZ
60 dBZ
55 dBZ
50 dBZ
45 dBZ
40 dBZ
35 dBZ
30 dBZ
25 dBZ
20 dBZ
15 dBZ
10 dBZ
5 dBZ
-1 K
-2 K
-3 K
-4 K
-5 K
-6 K
-7 K
-8 K
-9 K
950 m²/s²
900 m²/s²
850 m²/s²
800 m²/s²
750 m²/s²
700 m²/s²
650 m²/s²
600 m²/s²
550 m²/s²
500 m²/s²
450 m²/s²
400 m²/s²
350 m²/s²
300 m²/s²
250 m²/s²
200 m²/s²
150 m²/s²
100 m²/s²
46 m/s
44 m/s
42 m/s
40 m/s
38 m/s
36 m/s
34 m/s
32 m/s
30 m/s
28 m/s
26 m/s
24 m/s
22 m/s
20 m/s
16 m/s
12 m/s
8 m/s
4 m/s
30 m/s
28 m/s
26 m/s
24 m/s
22 m/s
20 m/s
18 m/s
16 m/s
14 m/s
12 m/s
10 m/s
8 m/s
6 m/s
4 m/s
2 m/s
3.0
2.8
2.6
2.4
2.2
2.0
1.8
1.6
1.4
1.2
1.0
0.8
0.6
0.4
0.2
15
14
13
12
11
10
9
8
7
6
5
4
3
2
1
90%
80%
70%
60%
50%
40%
30%
20%
10%
42
40
38
36
34
32
30
28
26
24
22
20
18
16
14
12
90+ cm
80-90 cm
70-80 cm
60-70 cm
50-60 cm
40-50 cm
30-40 cm
20-30 cm
10-20 cm
1-10 cm
Sneeuwval
Natte sneeuw
Regen
>120 mm
115 mm
110 mm
105 mm
100 mm
95 mm
90 mm
85 mm
80 mm
75 mm
70 mm
65 mm
60 mm
55 mm
50 mm
45 mm
45 mm
40 mm
35 mm
30 mm
25 mm
20 mm
15 mm
10 mm
5 mm
0.1 mm
960 hPa
880 hPa
800 hPa
720 hPa
640 hPa
560 hPa
584 gpdm
568 gpdm
552 gpdm
536 gpdm
520 gpdm
504 gpdm
488 gpdm
Extreem zwaar Noodweer Kans op onweer
15% 15% 5% 50% 15%

Dag




Kaart






35°
30°
25°
20°
15°
10°
-5°
-10°
-15°